Temperature
7 6 6 6 7 7 7 7 7 7 8 8 8 8 8 8 8 8 8 8 8 8 8 8 8 8 8 8 8 8 8 9 9 9 10 10 10 11 11 11 11 11 12 12
6 6 7 8 8 7 7 7 7 7 8 8 7 7 8 8 7 8 8 8 8 8 8 8 8 8 8 8 8 8 8 8 8 9 9 9 9 10 10 10 11 11 11 11
6 7 8 8 7 7 7 7 7 7 7 8 7 7 7 7 8 8 8 8 8 7 7 7 7 7 7 7 7 7 7 8 8 8 8 9 9 9 9 9 10 10 10 11
6 7 8 7 7 7 7 7 8 7 6 6 7 6 7 7 7 6 7 7 7 7 7 7 7 7 7 7 7 7 7 7 7 7 8 8 8 8 9 9 9 10 10 11
6 7 7 7 7 7 7 7 7 7 6 6 6 6 6 6 6 6 6 7 7 7 7 7 6 6 6 6 6 6 7 7 7 7 7 7 8 8 8 8 9 9 10 10
6 7 7 7 8 7 7 7 6 5 5 6 6 6 6 6 6 6 6 7 7 7 7 6 6 6 6 6 6 6 6 6 6 7 7 7 7 7 8 8 8 9 9 9
6 6 7 7 7 7 6 5 5 5 5 6 6 6 6 7 6 6 6 7 7 7 6 6 6 6 5 5 6 6 6 6 6 6 6 7 7 7 7 8 8 8 8 8
5 5 6 7 7 6 6 6 5 6 6 5 6 6 6 7 7 7 7 7 7 6 6 6 5 5 5 5 5 5 5 6 6 6 6 6 6 7 7 7 7 7 8 8
5 5 6 7 7 7 6 5 6 5 5 5 5 6 6 7 6 6 6 7 7 6 6 6 5 5 5 5 5 5 5 5 5 6 6 6 6 6 7 7 7 7 7 7
5 5 6 6 7 7 6 6 4 5 5 6 6 6 6 6 6 5 5 6 6 6 6 5 5 5 5 5 5 5 5 5 5 5 5 5 6 6 6 6 6 6 7 7
5 4 5 5 6 6 6 6 5 4 4 5 6 6 6 6 6 5 5 6 6 6 6 5 5 5 5 5 5 5 5 5 5 5 5 5 5 5 6 6 6 6 6 6
5 3 3 4 6 6 6 6 5 5 4 4 4 6 7 6 6 6 6 6 6 6 5 5 5 5 5 4 4 4 4 4 4 5 5 5 5 5 5 5 5 6 6 6
5 4 4 5 5 5 5 5 5 4 3 3 4 6 6 5 6 6 6 6 6 6 5 5 5 4 4 4 4 4 4 4 4 4 4 5 5 5 5 5 5 5 5 5
6 4 4 5 5 5 5 5 5 4 3 3 4 5 6 5 5 5 6 6 6 5 5 5 4 4 4 4 4 4 4 4 4 4 4 4 4 4 4 4 4 4 5 5
4 3 3 4 4 4 4 5 4 4 3 3 4 4 5 5 5 5 6 6 5 5 5 4 4 4 4 4 4 4 4 3 3 3 3 3 4 4 4 4 4 4 4 4
3 3 3 3 4 4 4 5 4 4 4 4 4 5 6 6 6 6 6 5 5 5 5 4 4 4 4 4 4 3 3 3 3 3 3 3 3 3 4 4 4 4 4 4
2 3 3 3 3 4 4 5 4 4 4 4 5 5 5 5 5 5 6 5 5 5 5 4 4 3 3 3 3 3 3 3 3 3 2 2 3 3 3 3 3 3 3 4
2 2 2 2 3 4 6 6 5 5 5 5 5 5 5 5 6 6 6 6 5 5 5 4 4 4 3 3 3 3 3 2 2 2 2 2 2 2 2 2 3 3 3 3
2 3 2 2 2 3 5 6 5 5 5 5 5 5 5 6 5 5 6 6 6 5 5 4 4 4 3 3 3 3 2 2 2 2 2 2 2 2 2 2 2 2 2 2
2 2 2 2 3 4 6 6 6 6 5 5 5 4 4 4 3 4 6 6 5 5 5 4 4 3 3 3 2 2 2 2 2 2 2 1 1 1 1 1 1 1 1 1
2 2 1 2 2 3 4 5 6 5 6 6 6 5 5 4 5 6 6 5 5 5 4 4 4 3 3 3 2 2 2 2 2 1 1 1 1 1 1 1 1 1 1 1
2 1 1 1 2 3 5 4 4 5 6 6 6 6 6 6 6 5 5 5 5 4 4 4 3 3 3 3 2 2 2 2 1 1 1 1 1 1 0 0 0 0 0 0
1 2 2 2 4 5 5 6 7 7 6 6 6 6 6 5 5 5 5 4 4 4 4 3 3 3 3 2 2 2 2 1 1 1 1 0 0 0 0 0 -0 -0 -0 -0
2 2 1 1 2 3 5 6 6 6 6 6 6 6 5 5 5 5 4 4 4 3 3 3 3 3 2 2 2 1 1 1 1 0 0 0 0 -0 -0 -0 -0 -1 -1 -1
2 2 1 2 2 3 5 6 6 6 6 5 5 5 5 5 5 4 4 4 3 3 3 2 2 2 2 2 1 1 1 0 0 0 0 -0 -0 -0 -1 -1 -1 -1 -1 -2
1 2 2 3 4 3 5 6 6 5 5 5 5 5 5 4 4 4 4 3 3 3 2 2 2 2 2 1 1 1 1 0 0 -0 -0 -0 -1 -1 -1 -1 -1 -2 -2 -2
Wind_Speed
3 5 1 3 4 3 3 3 3 4 3 1 4 7 8 4 1 2 2 2 3 4 4 4 5 5 6 6 6 6 6 5 4 3 2 2 2 2 2 3 4 4 4 5
5 2 3 2 2 1 1 1 1 2 1 1 3 7 6 3 3 3 3 3 3 4 6 6 6 6 6 7 7 7 6 5 4 3 3 2 2 2 3 3 3 4 5 4
2 2 1 2 1 1 1 3 2 1 3 2 2 5 3 2 1 1 1 2 2 2 4 6 7 6 7 7 7 7 7 6 5 4 2 2 1 1 2 3 3 4 4 4
1 2 1 1 1 2 1 1 1 1 2 2 0 3 5 3 3 2 3 3 3 3 3 4 5 6 7 7 7 7 6 6 5 4 2 2 2 3 3 3 3 3 3 3
1 1 1 1 1 2 2 2 0 1 1 2 1 2 7 2 3 5 4 3 3 3 3 4 5 5 6 6 6 6 6 6 6 4 3 2 3 3 3 3 2 2 2 3
1 1 0 1 0 1 1 2 3 4 3 2 4 4 6 4 5 5 4 4 3 2 3 4 4 5 6 6 5 6 6 6 6 4 3 2 3 3 3 3 2 2 2 2
4 3 2 1 2 3 4 4 4 4 2 5 2 3 7 5 5 4 5 4 3 1 2 4 5 6 7 7 6 6 7 8 7 5 4 3 3 2 2 2 2 2 2 2
2 4 3 1 1 1 0 3 4 3 3 4 2 5 6 4 3 2 2 2 1 1 2 3 4 4 6 7 7 6 7 7 7 6 5 4 3 2 2 2 2 2 2 2
1 3 3 1 0 3 2 1 3 4 0 3 5 5 5 2 2 1 1 1 2 2 2 3 3 4 5 6 6 6 6 6 7 7 6 4 3 3 2 2 1 1 1 2
2 1 3 3 2 1 2 3 3 3 1 3 5 4 5 5 5 3 3 3 3 2 2 3 3 4 4 5 5 6 6 6 6 6 5 4 3 3 2 2 2 2 2 2
1 1 3 2 2 3 2 2 2 2 3 3 3 6 5 7 6 5 4 4 3 2 2 3 4 4 4 5 5 6 6 7 7 7 5 5 3 2 2 2 2 2 2 3
1 2 2 5 4 2 4 4 5 3 3 3 3 7 5 5 5 4 4 3 2 2 2 2 3 4 4 5 5 5 6 6 6 6 6 5 5 4 4 3 3 2 2 2
2 3 2 5 3 1 2 3 4 4 3 4 4 7 3 1 2 3 3 3 3 2 1 2 3 3 4 4 4 5 5 6 6 6 6 5 5 5 5 4 4 3 2 3
2 3 5 6 5 3 5 5 4 5 4 5 9 10 8 6 6 6 5 4 3 3 2 2 2 3 4 4 4 4 5 5 5 5 5 5 5 5 5 4 4 4 3 3
3 3 5 8 8 7 9 10 9 10 9 9 9 9 12 9 8 7 6 5 4 4 3 3 3 3 3 4 4 4 4 4 4 4 4 5 4 4 4 4 4 4 4 4
1 2 3 5 6 7 10 13 12 12 10 12 12 14 11 7 5 5 6 5 6 5 5 4 3 3 3 4 4 4 4 4 3 3 4 4 4 4 5 5 4 4 4 4
2 2 1 4 6 6 9 10 11 7 8 9 12 11 5 4 6 7 7 7 7 6 5 5 4 4 4 4 3 3 4 4 3 3 4 4 4 4 4 5 5 5 4 4
5 3 2 3 5 6 7 2 6 7 8 9 8 7 5 7 7 6 7 7 6 5 5 5 4 4 3 3 3 3 3 3 3 4 4 4 3 3 4 4 4 4 3 3
6 5 2 2 4 9 9 4 4 5 7 7 10 8 5 3 2 4 5 5 6 6 6 5 5 4 3 2 2 2 3 3 3 4 4 4 3 3 3 4 4 4 3 4
4 4 3 3 4 7 6 2 1 2 6 5 6 6 5 2 2 6 4 4 5 4 4 4 3 3 3 3 2 1 2 3 3 4 4 3 3 2 2 3 3 3 3 3
3 4 6 7 7 9 8 3 3 3 6 2 4 5 5 7 7 5 4 4 4 4 4 4 4 4 4 3 2 2 3 4 5 4 3 3 2 2 2 2 3 3 3 3
9 7 7 6 7 10 5 6 7 8 3 3 4 5 6 7 6 5 5 5 4 4 4 4 4 4 4 3 3 3 4 4 4 3 2 2 2 2 2 2 2 2 2 2
9 10 7 10 11 6 5 7 6 4 5 5 5 6 6 6 6 6 5 5 5 5 5 4 5 4 4 4 4 4 5 3 2 2 2 2 2 2 2 2 2 2 2 2
6 5 5 7 11 9 9 8 7 6 7 7 7 6 6 7 7 6 6 5 5 5 5 4 4 5 5 4 4 5 4 3 2 3 3 2 2 2 2 2 2 2 2 2
7 5 6 9 9 7 8 8 9 8 7 7 7 6 7 7 7 7 6 6 6 5 4 4 5 6 6 5 5 5 3 3 3 3 3 2 2 2 2 2 2 2 3 3
8 10 9 11 10 8 8 6 6 6 7 8 8 7 7 7 8 7 6 6 5 5 4 5 6 6 6 5 5 4 3 3 3 3 3 2 2 2 2 2 3 3 3 4
Wind_Direction
46 62 80 210 191 186 178 183 231 249 257 229 241 266 277 259 202 249 274 286 299 304 309 326 331 333 340 337 334 323 312 305 303 301 283 272 271 272 270 265 267 260 249 228
51 14 266 211 160 120 178 192 261 300 325 261 269 281 281 236 208 215 227 254 284 319 334 335 334 337 334 330 329 325 316 309 300 284 269 248 246 245 246 259 268 261 252 237
119 251 252 131 98 68 343 187 204 242 344 16 352 312 295 271 223 228 253 262 290 306 314 324 332 331 330 325 324 322 319 317 309 300 296 300 294 284 261 257 250 249 246 238
26 321 42 104 122 117 296 251 176 121 40 302 69 283 283 273 290 279 278 295 296 302 315 322 330 331 324 319 322 323 322 322 315 307 290 263 254 257 256 254 254 252 241 229
337 334 42 98 226 157 223 271 247 158 127 324 246 200 279 309 280 277 271 272 280 289 313 323 320 319 322 325 329 329 333 333 336 339 315 273 263 258 260 261 257 260 252 235
303 313 165 224 313 150 203 33 46 53 71 290 230 187 273 246 241 262 261 261 263 283 320 331 332 334 333 335 340 340 345 344 343 349 343 314 283 273 268 267 260 261 253 239
359 344 335 45 37 18 53 70 40 8 356 256 238 196 249 251 240 232 244 253 259 275 324 338 342 342 340 341 343 348 354 351 350 351 349 333 302 285 271 270 240 238 244 241
31 318 304 348 151 176 81 126 146 195 240 285 302 235 252 267 255 236 225 223 244 290 315 324 329 335 337 341 348 352 353 347 348 351 345 343 335 320 300 286 265 240 230 241
140 278 304 307 247 142 136 169 166 142 259 279 274 284 299 263 301 290 275 306 279 284 301 311 326 339 339 341 345 346 344 347 349 348 346 346 344 343 335 328 314 295 270 261
155 257 294 313 29 2 164 153 99 124 175 276 286 268 248 241 252 263 264 269 277 290 307 319 328 336 337 338 342 349 355 353 348 347 346 343 337 341 331 342 349 353 339 324
118 162 307 337 214 211 163 156 142 147 176 190 273 271 228 214 219 225 241 249 248 261 290 312 323 329 333 341 347 351 354 356 355 354 353 351 348 353 5 5 354 356 346 333
133 128 263 262 263 233 196 191 159 168 229 203 227 268 267 215 214 210 234 251 239 226 266 308 320 330 336 339 343 346 349 353 352 353 356 0 2 6 12 1 347 351 335 319
131 116 354 338 327 320 242 211 178 156 157 194 213 262 298 237 243 234 239 251 245 234 275 313 324 329 327 329 337 342 345 346 348 355 360 2 3 4 0 352 349 350 346 349
107 167 191 219 233 220 245 236 195 166 199 230 232 254 278 271 265 264 256 246 237 235 247 267 293 309 317 324 331 335 334 339 345 353 357 358 357 357 353 352 353 353 355 359
110 221 241 256 262 252 249 246 222 215 215 224 247 248 263 254 247 243 242 238 235 244 246 247 263 287 307 323 327 329 328 332 338 347 350 345 346 352 358 358 351 352 2 8
129 230 282 284 270 258 263 252 235 231 230 238 256 268 263 256 237 234 236 231 236 241 239 246 254 275 293 304 314 326 325 322 331 338 339 341 350 359 3 356 356 1 7 9
202 189 291 283 306 319 274 241 211 208 212 206 232 247 259 250 242 233 229 227 231 232 233 235 240 249 262 276 291 308 311 319 332 329 330 339 346 354 354 353 4 4 1 10
174 165 216 288 338 259 248 254 189 207 235 220 233 248 236 238 248 238 218 214 227 229 228 231 232 242 253 262 287 305 319 326 326 321 321 329 336 341 347 357 358 351 355 4
178 171 207 247 278 279 286 256 188 203 263 229 230 249 252 264 315 285 231 212 221 224 225 222 221 227 235 249 270 305 316 316 320 318 320 324 326 333 345 352 349 344 349 355
142 154 181 210 247 253 254 249 158 105 277 246 206 230 230 160 264 270 248 238 241 237 224 214 212 214 224 246 248 272 295 301 298 296 300 311 323 330 336 335 335 336 341 349
157 184 205 219 241 265 257 228 137 187 252 252 205 222 205 206 225 248 249 250 237 234 228 211 204 213 225 227 217 250 273 275 281 289 296 307 320 318 318 324 328 331 341 350
185 187 200 190 216 253 230 159 189 222 251 240 231 229 222 231 243 245 240 240 238 236 232 216 212 227 230 214 205 245 261 272 285 291 293 301 310 315 324 324 326 331 336 344
205 199 195 200 218 240 202 205 228 217 234 245 239 240 228 232 239 241 240 240 242 237 233 226 220 229 233 220 213 238 261 273 285 278 276 285 299 312 317 315 316 324 333 335
247 204 208 246 254 250 249 249 254 244 243 250 242 237 222 231 237 239 241 243 244 242 240 231 221 230 238 233 230 238 252 252 255 260 267 272 275 297 306 302 302 302 301 309
227 200 219 250 266 282 264 245 247 250 251 256 252 237 227 228 238 237 242 244 243 245 239 227 227 235 241 235 237 241 236 227 241 253 258 262 262 272 281 284 279 279 273 280
209 206 214 241 236 230 252 251 245 249 259 255 252 253 243 227 234 236 240 242 241 241 238 238 240 241 243 235 239 240 227 221 228 242 248 250 256 270 278 289 308 301 295 308
Height
1501 1505 1507 1505 1505 1506 1507 1509 1510 1507 1504 1505 1504 1502 1498 1497 1497 1496 1495 1494 1493 1492 1490 1487 1485 1482 1480 1477 1474 1472 1471 1469 1468 1468 1467 1467 1468 1469 1470 1472 1473 1474 1476 1478
1506 1507 1505 1503 1503 1505 1507 1509 1509 1506 1503 1504 1504 1501 1497 1495 1495 1495 1494 1493 1492 1490 1488 1485 1483 1480 1477 1474 1472 1469 1467 1466 1465 1464 1463 1463 1464 1464 1465 1466 1468 1469 1471 1473
1507 1507 1503 1504 1505 1506 1507 1508 1508 1507 1506 1505 1506 1503 1498 1495 1494 1493 1493 1492 1490 1489 1487 1484 1481 1478 1475 1472 1469 1466 1464 1463 1461 1460 1460 1459 1460 1459 1461 1462 1463 1465 1466 1468
1507 1505 1504 1505 1506 1507 1509 1506 1506 1507 1511 1513 1510 1511 1499 1495 1494 1492 1491 1490 1488 1487 1485 1483 1480 1477 1474 1470 1467 1464 1461 1460 1458 1457 1456 1456 1455 1455 1456 1457 1458 1460 1461 1463
1508 1506 1505 1506 1506 1506 1507 1505 1506 1508 1511 1514 1511 1513 1503 1496 1494 1491 1489 1488 1487 1486 1484 1481 1479 1476 1472 1469 1465 1463 1460 1457 1455 1454 1453 1453 1452 1453 1453 1454 1454 1455 1456 1458
1508 1506 1506 1506 1505 1505 1506 1507 1508 1512 1515 1515 1508 1512 1504 1498 1492 1489 1488 1486 1485 1484 1482 1480 1478 1475 1471 1467 1464 1461 1458 1456 1453 1452 1451 1451 1450 1450 1450 1449 1449 1450 1452 1453
1511 1508 1506 1505 1506 1507 1508 1514 1521 1519 1522 1514 1506 1507 1501 1490 1488 1487 1486 1485 1484 1483 1481 1479 1476 1473 1469 1466 1463 1460 1457 1454 1452 1451 1450 1449 1447 1446 1446 1446 1446 1447 1448 1449
1516 1516 1509 1507 1507 1509 1510 1513 1521 1520 1520 1515 1506 1504 1495 1488 1485 1485 1484 1483 1483 1481 1480 1478 1475 1472 1469 1465 1462 1459 1456 1454 1451 1449 1448 1447 1445 1444 1444 1444 1444 1444 1445 1445
1517 1517 1509 1507 1506 1507 1510 1513 1513 1520 1520 1519 1509 1501 1492 1487 1486 1484 1483 1482 1481 1480 1479 1477 1475 1472 1469 1465 1462 1458 1455 1453 1450 1448 1447 1445 1444 1443 1442 1442 1442 1441 1442 1442
1514 1517 1511 1509 1507 1507 1509 1511 1518 1519 1518 1513 1506 1502 1496 1488 1486 1484 1483 1482 1480 1479 1478 1476 1474 1471 1468 1465 1462 1458 1455 1453 1450 1447 1445 1444 1443 1441 1440 1440 1439 1439 1439 1440
1514 1518 1516 1512 1510 1509 1510 1511 1513 1519 1519 1517 1512 1500 1484 1483 1482 1482 1481 1480 1479 1478 1477 1475 1473 1470 1468 1465 1462 1458 1455 1452 1449 1447 1445 1443 1442 1440 1439 1438 1437 1437 1437 1437
1514 1519 1521 1513 1508 1506 1507 1508 1512 1517 1517 1519 1518 1501 1479 1479 1479 1479 1479 1479 1478 1477 1476 1474 1472 1469 1467 1464 1461 1458 1455 1451 1449 1446 1444 1442 1440 1439 1437 1436 1435 1435 1435 1434
1513 1518 1522 1514 1513 1509 1507 1506 1508 1512 1516 1518 1515 1497 1479 1478 1478 1478 1478 1477 1477 1476 1475 1473 1471 1468 1465 1463 1460 1457 1454 1451 1449 1446 1444 1441 1439 1437 1436 1435 1434 1433 1432 1431
1511 1516 1520 1514 1509 1507 1507 1505 1506 1510 1516 1513 1504 1491 1480 1479 1478 1477 1476 1475 1475 1474 1473 1471 1469 1467 1464 1462 1459 1457 1454 1451 1448 1446 1443 1441 1439 1437 1435 1434 1433 1432 1431 1430
1511 1515 1513 1509 1505 1505 1502 1500 1502 1504 1503 1503 1491 1488 1477 1476 1475 1474 1473 1473 1472 1471 1470 1469 1467 1465 1463 1460 1458 1456 1453 1451 1448 1445 1442 1440 1438 1436 1435 1433 1432 1431 1429 1428
1511 1513 1511 1508 1501 1501 1498 1492 1493 1493 1493 1491 1487 1481 1471 1471 1471 1471 1470 1470 1469 1468 1467 1466 1465 1463 1461 1459 1456 1454 1452 1450 1447 1444 1442 1440 1437 1435 1433 1432 1430 1429 1427 1426
1512 1513 1513 1510 1503 1498 1493 1481 1482 1483 1481 1481 1481 1474 1469 1469 1468 1467 1467 1466 1466 1465 1464 1463 1462 1461 1459 1457 1455 1453 1450 1448 1446 1443 1441 1439 1436 1434 1433 1431 1429 1427 1426 1425
1510 1512 1514 1511 1506 1500 1480 1472 1472 1475 1473 1472 1469 1467 1466 1465 1464 1464 1463 1463 1462 1462 1461 1460 1459 1458 1456 1455 1453 1451 1449 1446 1444 1442 1440 1437 1435 1433 1431 1430 1428 1426 1425 1423
1505 1509 1512 1512 1510 1495 1477 1470 1470 1472 1470 1465 1465 1464 1463 1463 1462 1461 1460 1460 1460 1459 1458 1458 1457 1455 1454 1452 1450 1449 1446 1444 1442 1440 1438 1436 1434 1432 1430 1428 1426 1425 1423 1422
1504 1506 1511 1511 1507 1494 1472 1468 1466 1470 1469 1460 1460 1460 1461 1461 1465 1460 1457 1457 1456 1456 1455 1454 1453 1452 1451 1449 1448 1446 1444 1442 1440 1438 1436 1434 1432 1430 1428 1427 1425 1424 1422 1420
1505 1507 1508 1507 1504 1486 1469 1466 1467 1474 1466 1458 1457 1457 1458 1458 1458 1456 1454 1453 1453 1452 1451 1451 1450 1449 1448 1446 1445 1443 1441 1439 1438 1436 1434 1432 1431 1429 1427 1425 1424 1422 1420 1418
1497 1501 1500 1500 1500 1483 1462 1464 1465 1462 1457 1456 1455 1454 1454 1453 1453 1452 1451 1450 1449 1448 1448 1447 1446 1445 1444 1443 1441 1439 1438 1437 1435 1433 1432 1430 1429 1427 1425 1423 1422 1420 1418 1417
1486 1483 1482 1481 1472 1460 1457 1456 1455 1455 1454 1453 1452 1451 1451 1449 1448 1448 1447 1446 1445 1445 1444 1443 1442 1441 1440 1439 1438 1436 1435 1433 1432 1430 1429 1427 1426 1424 1423 1421 1419 1417 1416 1414
1476 1473 1474 1471 1459 1455 1453 1452 1452 1452 1450 1449 1448 1448 1446 1445 1444 1443 1443 1442 1441 1440 1439 1439 1438 1436 1436 1435 1434 1432 1431 1430 1428 1427 1425 1424 1423 1421 1420 1418 1417 1415 1413 1412
1468 1468 1467 1463 1454 1451 1447 1447 1447 1446 1445 1445 1444 1443 1442 1441 1440 1439 1438 1437 1436 1436 1435 1434 1433 1432 1431 1431 1429 1428 1427 1426 1424 1423 1422 1421 1419 1418 1417 1415 1414 1412 1411 1410
1457 1458 1459 1452 1446 1446 1442 1442 1442 1441 1440 1439 1439 1437 1437 1436 1435 1434 1433 1433 1432 1431 1430 1429 1429 1428 1427 1426 1425 1424 1423 1422 1420 1419 1418 1417 1416 1415 1414 1412 1411 1410 1409 1407